Flag for Kazakhstan Weather past 2 weeks in Astana, Kazakhstan

Now
66 °F

Sunny.


Feels Like: 66 °F
Forecast: 53 / 72 °F
Wind: 3 mph from Northwest

Location: Astana

Current Time: May 26, 2015 at 2:33:26 PM

Latest Report: May 26, 2015 at 2:00 PM


Visibility: 10 mi

Pressure: 30.12 "Hg

Humidity: 32%

Dew point: 36 °F

Location of AstanaLocation

Historic Weather in Astana — Graph

°F

Astana temperature yesterday

Maximum temperature yesterday: 64 °F (at 4:00 PM)
Minimum temperature yesterday: 52 °F (at 3:00 AM)
Average temperature yesterday: 56 °F

Past Weeks' High & Low Weather Summary

 TemperatureHumidityPressure
High72 °F (May 15, 4:30 PM)100% (May 19, 12:00 AM)30.21 "Hg (May 19, 12:00 AM)
Low39 °F (May 13, 4:00 AM)30% (May 13, 4:30 PM)29.36 "Hg (May 16, 10:30 PM)
Average56 °F72%29.87 "Hg
* Reported May 11 1:00 PM — May 26 1:30 PM, Astana, Weather by CustomWeather, © 2015

Note: Actual official high and low records may vary slightly from our data, if they occured in-between our weather recording intervals... More about our weather records

Advertising

Astana weather history for previous 24 hours

 ConditionsComfort  
Time TempWeatherWind HumidityBarometerVisibility
1:30 PM
Tue, May 26
66 °FSunny.6 mph37%30.12 "Hg10 mi
1:00 PM64 °FPassing clouds.6 mph40%30.12 "HgN/A
12:30 PM64 °FSunny.3 mph37%30.12 "Hg10 mi
12:00 PM64 °FPassing clouds.6 mph37%30.12 "HgN/A
11:30 AM63 °FPassing clouds.6 mph39%30.12 "HgN/A
11:00 AM63 °FPassing clouds.6 mph42%30.12 "HgN/A
10:30 AM63 °FPassing clouds.3 mph42%30.12 "HgN/A
10:00 AM61 °FPassing clouds.3 mph48%30.12 "HgN/A
9:30 AM59 °FPassing clouds.3 mph55%30.12 "HgN/A
8:30 AM57 °FSunny.1 mph63%30.09 "Hg10 mi
8:00 AM57 °FSunny.1 mph67%30.09 "Hg10 mi
7:30 AM55 °FSunny.1 mph72%30.09 "Hg10 mi
7:00 AM54 °FSunny.No wind72%30.09 "Hg10 mi
6:30 AM50 °FSunny.No wind71%30.09 "Hg10 mi
6:00 AM46 °FClear.1 mph76%30.07 "Hg10 mi
5:30 AM46 °FClear.1 mph82%30.07 "Hg10 mi
5:00 AM45 °FClear.3 mph87%30.07 "Hg10 mi
4:30 AM45 °FClear.3 mph87%30.07 "Hg10 mi
4:00 AM46 °FClear.3 mph82%30.07 "Hg10 mi
3:30 AM48 °FClear.3 mph76%30.07 "Hg10 mi
2:30 AM48 °FClear.3 mph82%30.04 "Hg10 mi
2:00 AM50 °FClear.1 mph82%30.04 "Hg10 mi
1:30 AM48 °FClear.1 mph87%30.04 "Hg10 mi
1:00 AM50 °FClear.6 mph82%30.04 "Hg10 mi
12:30 AM50 °FClear.3 mph82%30.04 "Hg10 mi
12:00 AM50 °FClear.3 mph88%30.04 "Hg10 mi
11:30 PM
Mon, May 25
52 °FPassing clouds.3 mph82%30.04 "HgN/A
11:00 PM54 °FClear.3 mph77%30.04 "Hg10 mi
10:30 PM54 °FPartly cloudy.3 mph77%30.01 "HgN/A
10:00 PM54 °FBroken clouds.3 mph77%30.01 "HgN/A
9:30 PM54 °FBroken clouds.1 mph77%30.01 "HgN/A
9:00 PM54 °FBroken clouds.6 mph77%30.01 "HgN/A
8:30 PM57 °FBroken clouds.3 mph63%29.98 "HgN/A
8:00 PM59 °FBroken clouds.8 mph55%29.98 "HgN/A
7:30 PM61 °FBroken clouds.8 mph55%29.95 "HgN/A
7:00 PM63 °FBroken clouds.6 mph52%29.95 "HgN/A
6:30 PM61 °FBroken clouds.8 mph55%29.95 "HgN/A
6:00 PM61 °FBroken clouds.8 mph59%29.95 "HgN/A
5:30 PM59 °FBroken clouds.13 mph59%29.92 "HgN/A
5:00 PM59 °FBroken clouds.20 mph68%29.92 "HgN/A
4:30 PM63 °FPartly sunny.10 mph56%29.92 "HgN/A
4:00 PM64 °FScattered clouds.15 mph49%29.89 "HgN/A
3:30 PM63 °FBroken clouds.13 mph49%29.89 "HgN/A
3:00 PM63 °FBroken clouds.15 mph56%29.89 "HgN/A
2:30 PM59 °FPartly sunny.15 mph63%29.89 "HgN/A
2:00 PM59 °FPartly sunny.15 mph68%29.89 "HgN/A
Weather by CustomWeather, © 2015

See weather overviewHow to use our weather pages